Location: Caltech
(34.1382°N, 118.1253°W)
Time: 11:18:35
(UTC-08:00)

Iridium 12 - Visible Passes

Search period start: 19 January 2017 00:00
Search period end: 29 January 2017 00:00
Orbit: 776 x 779 km, 86.4° (Epoch: 19 January)

Date Brightness Start Highest point End Pass type
(mag) Time Alt. Az. Time Alt. Az. Time Alt. Az.
19 Jan 8.3 05:58:58 10° NE 06:02:13 16° ENE 06:05:26 10° ESE visible
19 Jan 6.9 18:50:33 10° SSE 18:52:42 23° SE 18:52:42 23° SE visible
19 Jan 8.2 20:32:23 10° SW 20:33:16 13° WSW 20:33:16 13° WSW visible
20 Jan 6.9 18:18:21 10° SE 18:20:48 18° E 18:20:48 18° E visible
20 Jan 7.0 19:57:36 10° SSW 20:01:23 34° WSW 20:01:23 34° WSW visible
21 Jan 5.6 19:23:37 10° S 19:28:48 74° W 19:29:47 57° NNW visible
22 Jan 8.0 05:58:15 10° NNE 06:02:27 24° E 06:06:39 10° SE visible
22 Jan 5.5 18:50:15 10° SSE 18:55:20 57° E 18:58:50 20° NNE visible
22 Jan 8.4 20:34:00 10° WSW 20:36:23 13° WNW 20:38:47 10° NW visible
23 Jan 8.5 05:26:29 10° NE 05:28:39 12° ENE 05:30:49 10° ESE visible
23 Jan 6.3 18:17:32 10° SE 18:21:58 29° E 18:26:25 10° NNE visible
23 Jan 7.5 19:58:20 10° SW 20:02:36 25° W 20:06:53 10° NNW visible
24 Jan 7.0 17:45:48 10° ESE 17:48:43 15° E 17:51:38 10° NE visible
24 Jan 6.4 19:23:55 10° SSW 19:28:56 49° W 19:33:59 10° N visible
25 Jan 7.2 05:57:52 10° NNE 06:02:40 36° E 06:07:25 10° SSE visible
25 Jan 5.4 18:50:11 10° S 18:55:23 85° E 19:00:37 10° N visible
26 Jan 8.3 05:25:18 10° NE 05:28:56 19° E 05:32:34 10° ESE visible
26 Jan 5.8 18:17:04 10° SSE 18:21:57 43° E 18:26:52 10° NNE visible
26 Jan 8.1 19:59:29 10° WSW 20:02:50 17° WNW 20:06:13 10° NW visible
27 Jan 6.6 17:44:40 10° SE 17:48:38 23° E 17:52:38 10° NNE visible
27 Jan 7.2 19:24:27 10° SW 19:29:06 33° W 19:33:46 10° NNW visible
28 Jan 6.4 05:57:43 10° N 06:02:50 54° E 06:07:54 10° SSE visible
28 Jan 5.9 18:50:20 10° SSW 18:55:29 64° W 19:00:40 10° N visible
